Погода в Сакапе

Гватемала     14°58′00″N   89°32′03″W
темп.,
°C
ветер,
м/с
пор.,
м/с
влажн.,
%
обл.,
%
осадки,
мм/ч
давл.,
гПа
погр.,
м
9 августа, вт
вт900:00+19с1294100 0.1 101648
03:00+19с1196100 0.1 101436
06:00+19с1195100 0.1 101642
09:00+22ссв128394 0.1 1017435
12:00+26св237548 1.2 10141088
15:00+25ссв237780 1.8 1013836
18:00+21ссв239693 3.8 101492
21:00+20ссв229878 0.3 101665
10 августа, ср
ср1000:00+19ссв119849 0.6 101632
03:00+19с119871 1.4 101534
06:00+19зюз119874 3.4 101545
09:00+23в118649 0.1 1016492
12:00+26св237261 0.4 1015987
15:00+25ссв348457 1.7 1013753
18:00+22св228846 2.4 101449
21:00+20ссв129581 0.1 101647
11 августа, чт
чт1100:00+20зюз1196100 1.3 101725
03:00+19ююв0097100 0.3 101515
06:00+18сз009890 0.3 101512
09:00+24св117833 0.0 1016625
12:00+29св125732 0.1 10131554
15:00+27с246661 1.0 1011764
18:00+22св2291100 2.5 101343
21:00+20ссв229783 0.3 101646
12 августа, пт
пт1200:00+19ссв119810 0.4 101625
03:00+19ссв019810 0.0 101513
06:00+18ссв009811 0.0 101612
09:00+24св127950 0.0 1016696
12:00+28ссв126292 0.4 10141386
15:00+27св236466 0.6 10121278
18:00+22св2289100 1.4 101330
21:00+20ссв1196100 0.0 101628
13 августа, сб
сб1300:00+19с119799 0.0 101617
03:00+18зюз019899 0.0 101511
06:00+18зюз119794 0.0 101529
09:00+23ю0178100 0.0 1016477
12:00+28всв135297 0.0 10141464
15:00+29св344957 0.0 10121842
18:00+22св248664 0.3 101370
21:00+20ссв229657 0.2 101649